Date String (YYYY-MM-DD hh:mm:ss) UTC,Instrument flags,Ambient pressure (hPa),Sample flow (lpm),Bypass flow (lpm),Sample temperature (°C),Ambient temperature (°C),ASC tube jacket temperature (°C),LED temperature (°C),Box temperature (°C),Sample RH (%),Span deviation,Mass concentration (μg/m³),Mass concentration (μg/m³),Mass concentration (μg/m³)
DateTimeUTC,F1_M11,P_M11,Q1_M11,Q2_M11,T1_M11,T2_M11,T3_M11,T4_M11,T5_M11,U1_M11,ZSPAN_M11,X0_M11,X2_M11,X1_M11
2021-12-29 06:00:00,,0811.2,5.01,0.00,22.5,21.7,00.0,31.5,24.1,06.1,0000.0,0017.59,0003.59,0001.24
2021-12-29 06:01:00,,0811.2,5.00,0.00,22.5,21.7,00.0,31.5,24.1,06.1,0000.0,0016.96,0003.57,0001.22
2021-12-29 06:02:00,,0811.2,5.00,0.00,22.4,21.6,00.0,31.5,24.1,06.1,0000.0,0018.24,0003.57,0001.22
2021-12-29 06:03:00,,0811.1,4.99,0.00,22.4,21.6,00.0,31.5,24.0,06.1,0000.0,0017.89,0003.53,0001.22
2021-12-29 06:04:00,,0811.0,5.01,0.00,22.4,21.6,00.0,31.5,24.0,06.1,0000.0,0017.61,0003.45,0001.22
2021-12-29 06:05:00,,0811.0,5.00,0.00,22.4,21.5,00.0,31.5,23.9,06.1,0000.0,0015.79,0003.37,0001.23
2021-12-29 06:06:00,,0811.0,4.99,0.00,22.4,21.8,00.0,31.5,24.0,06.1,0000.0,0014.10,0003.28,0001.23
2021-12-29 06:07:00,,0811.0,5.01,0.00,22.5,22.4,00.0,31.5,24.2,06.1,0000.0,0013.38,0003.20,0001.23
2021-12-29 06:08:00,,0811.0,4.99,0.00,22.6,23.1,00.0,31.5,24.5,06.0,0000.0,0012.84,0003.19,0001.23
2021-12-29 06:09:00,,0811.0,5.00,0.00,22.7,23.1,00.0,31.5,24.5,06.0,0000.0,0012.46,0003.17,0001.23
2021-12-29 06:10:00,,0811.0,5.00,0.00,22.7,22.8,00.0,31.5,24.5,06.0,0000.0,0012.81,0003.18,0001.25
2021-12-29 06:11:00,,0811.0,4.99,0.00,22.7,22.6,00.0,31.5,24.4,06.0,0000.0,0013.16,0003.14,0001.26
2021-12-29 06:12:00,,0811.0,5.01,0.00,22.6,22.4,00.0,31.6,24.3,06.0,0000.0,0013.78,0003.16,0001.27
2021-12-29 06:13:00,,0811.0,5.01,0.00,22.6,22.2,00.0,31.5,24.2,06.0,0000.0,0012.57,0003.13,0001.26
2021-12-29 06:14:00,,0811.0,4.99,0.00,22.5,22.1,00.0,31.5,24.1,06.0,0000.0,0011.75,0003.12,0001.26
2021-12-29 06:15:00,,0811.0,5.02,0.00,22.5,21.9,00.0,31.5,24.1,06.0,0000.0,0012.51,0003.15,0001.26
2021-12-29 06:16:00,,0810.9,5.00,0.00,22.4,21.8,00.0,31.5,24.0,06.0,0000.0,0012.70,0003.19,0001.24
2021-12-29 06:17:00,,0811.0,5.01,0.00,22.4,21.7,00.0,31.5,24.0,06.0,0000.0,0013.07,0003.24,0001.24
2021-12-29 06:18:00,,0811.0,5.00,0.00,22.4,21.6,00.0,31.5,23.9,06.0,0000.0,0013.27,0003.26,0001.23
2021-12-29 06:19:00,,0810.9,5.00,0.00,22.3,21.6,00.0,31.5,23.9,06.1,0000.0,0012.81,0003.25,0001.24
2021-12-29 06:20:00,,0810.9,5.00,0.00,22.3,21.5,00.0,31.4,23.8,06.1,0000.0,0013.38,0003.24,0001.25
2021-12-29 06:21:00,,0810.8,4.99,0.00,22.2,21.4,00.0,31.4,23.8,06.1,0000.0,0012.99,0003.21,0001.24
2021-12-29 06:22:00,,0810.8,5.01,0.00,22.3,21.7,00.0,31.4,23.9,06.1,0000.0,0012.42,0003.18,0001.23
2021-12-29 06:23:00,,0810.8,4.99,0.00,22.4,22.5,00.0,31.5,24.1,06.1,0000.0,0012.18,0003.16,0001.23
2021-12-29 06:24:00,,0810.7,5.00,0.00,22.5,23.2,00.0,31.5,24.4,06.1,0000.0,0012.68,0003.21,0001.23
2021-12-29 06:25:00,,0810.7,5.00,0.00,22.6,23.4,00.0,31.5,24.6,06.0,0000.0,0013.26,0003.22,0001.22
2021-12-29 06:26:00,,0810.6,5.01,0.00,22.7,23.1,00.0,31.5,24.5,06.0,0000.0,0013.16,0003.27,0001.20
2021-12-29 06:27:00,,0810.6,4.99,0.00,22.7,22.8,00.0,31.5,24.4,06.0,0000.0,0013.78,0003.28,0001.21
2021-12-29 06:28:00,,0810.6,5.00,0.00,22.6,22.6,00.0,31.6,24.3,06.1,0000.0,0014.78,0003.25,0001.20
2021-12-29 06:29:00,,0810.6,5.01,0.00,22.6,22.3,00.0,31.5,24.2,06.1,0000.0,0015.39,0003.23,0001.20
2021-12-29 06:30:00,,0810.6,4.99,0.00,22.5,22.1,00.0,31.5,24.1,06.1,0000.0,0015.48,0003.21,0001.18
2021-12-29 06:31:00,,0810.5,5.01,0.00,22.5,22.0,00.0,31.5,24.0,06.1,0000.0,0014.66,0003.21,0001.17
2021-12-29 06:32:00,,0810.4,5.00,0.00,22.4,21.8,00.0,31.5,24.0,06.1,0000.0,0014.43,0003.21,0001.16
2021-12-29 06:33:00,,0810.5,5.00,0.00,22.4,21.8,00.0,31.5,23.9,06.2,0000.0,0014.16,0003.20,0001.15
2021-12-29 06:34:00,,0810.4,4.98,0.00,22.3,21.6,00.0,31.5,23.9,06.2,0000.0,0014.08,0003.24,0001.14
2021-12-29 06:35:00,,0810.3,5.01,0.00,22.3,21.6,00.0,31.5,23.8,06.2,0000.0,0013.76,0003.19,0001.15
2021-12-29 06:36:00,,0810.3,5.01,0.00,22.3,21.5,00.0,31.4,23.8,06.2,0000.0,0014.10,0003.16,0001.15
2021-12-29 06:37:00,,0810.3,4.99,0.00,22.2,21.4,00.0,31.4,23.8,06.2,0000.0,0013.53,0003.07,0001.17
2021-12-29 06:38:00,,0810.3,5.01,0.00,22.2,21.4,00.0,31.4,23.8,06.2,0000.0,0013.49,0002.99,0001.16
2021-12-29 06:39:00,,0810.4,4.99,0.00,22.3,22.0,00.0,31.4,23.9,06.2,0000.0,0013.23,0003.02,0001.16
2021-12-29 06:40:00,,0810.3,5.00,0.00,22.4,22.8,00.0,31.4,24.2,06.2,0000.0,0012.52,0003.02,0001.17
2021-12-29 06:41:00,,0810.3,5.01,0.00,22.5,23.4,00.0,31.5,24.5,06.1,0000.0,0012.15,0003.02,0001.17
2021-12-29 06:42:00,,0810.3,5.00,0.00,22.6,23.4,00.0,31.5,24.6,06.1,0000.0,0012.31,0002.91,0001.17
2021-12-29 06:43:00,,0810.4,5.00,0.00,22.6,23.1,00.0,31.5,24.5,06.1,0000.0,0012.43,0002.81,0001.15
2021-12-29 06:44:00,,0810.3,5.01,0.00,22.6,22.8,00.0,31.5,24.4,06.1,0000.0,0013.06,0002.80,0001.16
2021-12-29 06:45:00,,0810.3,4.99,0.00,22.6,22.6,00.0,31.5,24.3,06.1,0000.0,0013.43,0002.73,0001.15
2021-12-29 06:46:00,,0810.3,5.00,0.00,22.6,22.4,00.0,31.5,24.2,06.1,0000.0,0013.83,0002.79,0001.14
2021-12-29 06:47:00,,0810.3,5.00,0.00,22.6,22.2,00.0,31.5,24.2,06.1,0000.0,0012.56,0002.85,0001.12
2021-12-29 06:48:00,,0810.2,5.00,0.00,22.6,22.1,00.0,31.5,24.2,06.1,0000.0,0012.48,0002.81,0001.10
2021-12-29 06:49:00,,0810.2,4.99,0.00,22.5,22.0,00.0,31.5,24.2,06.1,0000.0,0012.06,0002.84,0001.08
2021-12-29 06:50:00,,0810.3,5.00,0.00,22.5,21.9,00.0,31.5,24.1,06.1,0000.0,0011.52,0002.87,0001.08
2021-12-29 06:51:00,,0810.4,5.00,0.00,22.5,21.8,00.0,31.5,24.1,06.1,0000.0,0011.51,0002.89,0001.05
2021-12-29 06:52:00,,0810.4,4.99,0.00,22.5,21.7,00.0,31.5,24.1,06.1,0000.0,0012.93,0002.89,0001.04
2021-12-29 06:53:00,,0810.3,5.00,0.00,22.4,21.7,00.0,31.5,24.1,06.1,0000.0,0013.51,0002.97,0001.04
2021-12-29 06:54:00,,0810.3,5.00,0.00,22.4,21.6,00.0,31.5,24.1,06.2,0000.0,0013.42,0003.02,0001.04
2021-12-29 06:55:00,,0810.4,5.01,0.00,22.4,21.6,00.0,31.5,24.0,06.2,0000.0,0013.25,0003.06,0001.04
2021-12-29 06:56:00,,0810.5,4.98,0.00,22.4,21.5,00.0,31.4,24.0,06.2,0000.0,0012.93,0003.15,0001.06
2021-12-29 06:57:00,,0810.5,5.00,0.00,22.4,21.7,00.0,31.4,24.0,06.2,0000.0,0012.60,0003.11,0001.07
2021-12-29 06:58:00,,0810.4,5.01,0.00,22.5,22.4,00.0,31.5,24.3,06.1,0000.0,0012.41,0003.08,0001.09
2021-12-29 06:59:00,,0810.4,4.99,0.00,22.6,23.2,00.0,31.5,24.5,06.1,0000.0,0012.54,0003.13,0001.12
